Volver al catálogo

STARLINK-5781

ActivoComunicacionesVLEO
NORAD 56030·PAYLOAD·🇺🇸 United States

Lanzado Mar 24, 2023 desde Cape Canaveral Space Force Station

Loading…

Próximos Pases (próximas 24 horas)

TLE

ActualizadoSource: CelesTrak SupGP

Época: Sep 15, 2026, 01:36 UTC

1 56030C 23042AW  26258.06715278 -.00038245  00000+0 -13850-2 0  2584
2 56030  43.0044  55.6759 0001917 272.3386 272.5360 15.27602124    13

Sigue STARLINK-5781 en tiempo real con AllMySat

Download on the App Store